This is the latest recevied weather packets stored in our database for station/object VE3EP-1. If no packets are shown the sender has not sent any weather packets the latest 10 day(s).
| Time | Temp. | Humidity | Pressure | Rain* | Wind** | Luminosity | Snow |
|---|---|---|---|---|---|---|---|
| 1778137928 | 6.11° C | 62% | 1014.4 hPa | 0 mm | - | - | - |
| 1778137329 | 6.11° C | 65% | 1014.3 hPa | 0 mm | - | - | - |
| 1778136728 | 6.11° C | 62% | 1014.1 hPa | 0 mm | - | - | - |
| 1778135529 | 6.11° C | 63% | 1014 hPa | 0 mm | - | - | - |
| 1778134928 | 6.11° C | 67% | 1014.2 hPa | 0 mm | - | - | - |
| 1778134328 | 6.11° C | 65% | 1014.2 hPa | 0 mm | - | - | - |
| 1778133729 | 6.11° C | 66% | 1014.5 hPa | 0 mm | - | - | - |
| 1778133129 | 6.11° C | 68% | 1014.4 hPa | 0 mm | - | - | - |
| 1778131928 | 6.11° C | 64% | 1014.5 hPa | 0 mm | - | - | - |
| 1778131328 | 6.11° C | 64% | 1014.5 hPa | 0 mm | - | - | - |
| 1778130128 | 6.11° C | 63% | 1014.2 hPa | 0 mm | - | - | - |
| 1778129528 | 6.11° C | 62% | 1014.6 hPa | 0 mm | - | - | - |
| 1778128928 | 6.11° C | 62% | 1014.4 hPa | 0 mm | - | - | - |
| 1778128328 | 6.11° C | 63% | 1014.5 hPa | 0 mm | - | - | - |
| 1778127728 | 6.11° C | 62% | 1014.5 hPa | 0 mm | - | - | - |
| 1778127128 | 6.11° C | 62% | 1014.3 hPa | 0 mm | - | - | - |
| 1778125928 | 6.67° C | 64% | 1014.2 hPa | 0 mm | - | - | - |
| 1778125328 | 6.67° C | 64% | 1014 hPa | 0 mm | - | - | - |
| 1778124729 | 6.67° C | 69% | 1014 hPa | 0 mm | - | - | - |
| 1778124128 | 6.67° C | 75% | 1014.2 hPa | 0 mm | - | - | - |
| 1778123528 | 6.67° C | 75% | 1014 hPa | 0 mm | - | - | - |
| 1778122928 | 6.67° C | 74% | 1014.2 hPa | 0 mm | - | - | - |
| 1778122329 | 6.11° C | 82% | 1014.2 hPa | 0 mm | - | - | - |
| 1778121728 | 6.11° C | 87% | 1014.2 hPa | 0 mm | - | - | - |
| 1778121128 | 6.11° C | 87% | 1014.4 hPa | 0 mm | - | - | - |
* Rain latest hour (hover to see other rain measurements)
** Current wind speed in m/s (hover to see current wind gust speed)